Simultaneous Nadir Overpasses (SNOs) Predictions

Prediction of SNOs between GOES-15 and TERRA Satellite Orbit:

Table of predicted SNOs for the next 14.0 days since TLE Epoch: 4/15/2012
Index Date Time (GOES-15) GOES-15 Lat,Lon TERRA Lat,Lon Distance(km) Time Diff (sec)
1 04/15/2012 07:27:51 0.11,-134.51 0.04,-134.86 39.65 80
2 04/17/2012 07:18:22 0.11,-134.59 0.69,-131.92 304.34 80
3 04/17/2012 19:39:38 -0.11,-134.67 0.40,-137.08 273.47 80
4 04/19/2012 19:24:49 -0.11,-134.75 -0.26,-134.14 70.04 80
5 04/21/2012 19:12:39 -0.11,-134.82 -0.88,-131.18 412.90 80
6 04/22/2012 07:36:43 0.11,-134.77 -0.26,-136.37 182.34 80
7 04/24/2012 07:21:54 0.11,-134.83 0.43,-133.43 159.81 80
8 04/24/2012 19:45:49 -0.11,-134.91 0.66,-138.59 418.09 80
9 04/26/2012 19:33:39
